Time,TemperatureF,DewpointF,PressureIn,WindDirection,WindDirectionDegrees,WindSpeedMPH,WindSpeedGustMPH,Humidity,HourlyPrecipIn,Conditions,Clouds,dailyrainin,SoftwareType,DateUTC
2013-02-16 00:05:00,33.0,30.0,29.96,WSW,251,0.0,0.0,90,0.01,,,0.07,weatherlink.com 1.10,2013-02-16 05:05:00,
2013-02-16 00:20:00,32.7,30.0,29.96,WSW,251,0.0,0.0,91,0.00,,,0.07,weatherlink.com 1.10,2013-02-16 05:20:00,
2013-02-16 00:35:00,32.6,31.0,29.97,WSW,252,0.0,1.0,92,0.00,,,0.07,weatherlink.com 1.10,2013-02-16 05:35:00,
2013-02-16 00:50:00,32.4,30.0,29.96,WSW,252,0.0,0.0,92,0.00,,,0.07,weatherlink.com 1.10,2013-02-16 05:50:00,
2013-02-16 01:05:00,32.4,31.0,29.96,WSW,252,0.0,0.0,93,0.00,,,0.07,weatherlink.com 1.10,2013-02-16 06:05:00,
2013-02-16 01:20:00,32.3,31.0,29.95,WSW,251,0.0,0.0,93,0.00,,,0.07,weatherlink.com 1.10,2013-02-16 06:20:00,
2013-02-16 01:36:00,32.3,31.0,29.94,WSW,251,0.0,0.0,93,0.00,,,0.07,weatherlink.com 1.10,2013-02-16 06:36:00,
2013-02-16 01:51:00,32.3,31.0,29.95,WSW,251,0.0,0.0,93,0.00,,,0.07,weatherlink.com 1.10,2013-02-16 06:51:00,
2013-02-16 02:06:00,32.2,30.0,29.95,WSW,251,0.0,0.0,93,0.00,,,0.07,weatherlink.com 1.10,2013-02-16 07:06:00,
2013-02-16 02:21:00,32.2,30.0,29.95,West,275,0.0,3.0,93,0.00,,,0.07,weatherlink.com 1.10,2013-02-16 07:21:00,
2013-02-16 02:36:00,32.2,31.0,29.94,West,275,0.0,1.0,94,0.00,,,0.07,weatherlink.com 1.10,2013-02-16 07:36:00,
2013-02-16 02:51:00,32.2,31.0,29.94,NW,309,0.0,2.0,94,0.00,,,0.07,weatherlink.com 1.10,2013-02-16 07:51:00,
2013-02-16 03:06:00,32.1,31.0,29.94,NW,309,0.0,0.0,94,0.00,,,0.07,weatherlink.com 1.10,2013-02-16 08:06:00,
2013-02-16 03:21:00,32.2,31.0,29.92,WNW,282,0.0,0.0,94,0.00,,,0.07,weatherlink.com 1.10,2013-02-16 08:21:00,
2013-02-16 03:36:00,32.3,31.0,29.92,NNW,342,0.0,3.0,94,0.00,,,0.07,weatherlink.com 1.10,2013-02-16 08:36:00,
2013-02-16 03:51:00,32.3,31.0,29.93,NNW,342,0.0,1.0,94,0.00,,,0.07,weatherlink.com 1.10,2013-02-16 08:51:00,
2013-02-16 04:06:00,32.0,31.0,29.92,NNE,19,2.0,4.0,94,0.00,,,0.07,weatherlink.com 1.10,2013-02-16 09:06:00,
2013-02-16 04:21:00,31.7,30.0,29.94,WNW,284,0.0,3.0,94,0.00,,,0.07,weatherlink.com 1.10,2013-02-16 09:21:00,
2013-02-16 04:36:00,31.5,30.0,29.94,North,9,0.0,2.0,92,0.00,,,0.07,weatherlink.com 1.10,2013-02-16 09:36:00,
2013-02-16 04:51:00,31.4,29.0,29.93,North,355,0.0,3.0,90,0.00,,,0.07,weatherlink.com 1.10,2013-02-16 09:51:00,
2013-02-16 05:06:00,31.3,29.0,29.94,NW,315,2.0,3.0,89,0.00,,,0.07,weatherlink.com 1.10,2013-02-16 10:06:00,
2013-02-16 05:21:00,31.0,28.0,29.94,NW,317,1.0,4.0,89,0.00,,,0.07,weatherlink.com 1.10,2013-02-16 10:21:00,
2013-02-16 05:36:00,30.9,28.0,29.94,North,360,0.0,3.0,89,0.00,,,0.07,weatherlink.com 1.10,2013-02-16 10:36:00,
2013-02-16 05:51:00,30.7,28.0,29.94,NE,35,0.0,2.0,88,0.00,,,0.07,weatherlink.com 1.10,2013-02-16 10:51:00,
2013-02-16 06:06:00,30.5,27.0,29.94,NE,42,0.0,3.0,88,0.00,,,0.00,weatherlink.com 1.10,2013-02-16 11:06:00,
2013-02-16 06:21:00,30.3,27.0,29.93,NNE,21,0.0,3.0,88,0.00,,,0.00,weatherlink.com 1.10,2013-02-16 11:21:00,
2013-02-16 06:36:00,30.2,27.0,29.95,NW,306,0.0,2.0,87,0.00,,,0.00,weatherlink.com 1.10,2013-02-16 11:36:00,
2013-02-16 06:51:00,30.0,27.0,29.94,NNW,342,2.0,5.0,87,0.00,,,0.00,weatherlink.com 1.10,2013-02-16 11:51:00,
2013-02-16 07:06:00,29.7,26.0,29.94,NNE,33,0.0,3.0,86,0.00,,,0.00,weatherlink.com 1.10,2013-02-16 12:06:00,
2013-02-16 07:21:00,29.5,26.0,29.95,NNW,347,0.0,3.0,86,0.00,,,0.00,weatherlink.com 1.10,2013-02-16 12:21:00,
2013-02-16 07:36:00,29.4,26.0,29.95,ENE,69,0.0,2.0,85,0.00,,,0.00,weatherlink.com 1.10,2013-02-16 12:36:00,
2013-02-16 07:51:00,29.6,26.0,29.95,West,265,0.0,1.0,85,0.00,,,0.00,weatherlink.com 1.10,2013-02-16 12:51:00,
2013-02-16 08:06:00,29.8,26.0,29.96,ENE,67,0.0,1.0,85,0.00,,,0.00,weatherlink.com 1.10,2013-02-16 13:06:00,
2013-02-16 08:21:00,29.7,25.0,29.96,ENE,61,0.0,2.0,83,0.00,,,0.00,weatherlink.com 1.10,2013-02-16 13:21:00,
2013-02-16 08:36:00,29.6,25.0,29.96,ENE,71,0.0,4.0,82,0.00,,,0.00,weatherlink.com 1.10,2013-02-16 13:36:00,
2013-02-16 08:51:00,29.9,25.0,29.96,NE,49,0.0,1.0,81,0.00,,,0.00,weatherlink.com 1.10,2013-02-16 13:51:00,
2013-02-16 09:06:00,30.0,25.0,29.95,East,88,0.0,4.0,80,0.00,,,0.00,weatherlink.com 1.10,2013-02-16 14:06:00,
2013-02-16 09:21:00,30.3,25.0,29.95,NNE,20,0.0,3.0,80,0.00,,,0.00,weatherlink.com 1.10,2013-02-16 14:21:00,
2013-02-16 09:36:00,30.8,25.0,29.94,ENE,67,0.0,1.0,79,0.00,,,0.00,weatherlink.com 1.10,2013-02-16 14:36:00,
2013-02-16 09:51:00,31.7,26.0,29.94,WSW,241,0.0,4.0,78,0.00,,,0.00,weatherlink.com 1.10,2013-02-16 14:51:00,
2013-02-16 10:06:00,31.8,26.0,29.94,ENE,65,0.0,4.0,78,0.01,,,0.01,weatherlink.com 1.10,2013-02-16 15:06:00,
2013-02-16 10:21:00,32.3,26.0,29.94,WNW,283,1.0,2.0,79,0.02,,,0.02,weatherlink.com 1.10,2013-02-16 15:21:00,
2013-02-16 10:36:00,32.7,26.0,29.94,SE,126,0.0,2.0,77,0.03,,,0.03,weatherlink.com 1.10,2013-02-16 15:36:00,
2013-02-16 10:51:00,33.0,27.0,29.93,WNW,300,1.0,4.0,78,0.05,,,0.05,weatherlink.com 1.10,2013-02-16 15:51:00,
2013-02-16 11:06:00,32.4,26.0,29.93,WSW,258,4.0,5.0,77,0.04,,,0.05,weatherlink.com 1.10,2013-02-16 16:06:00,
2013-02-16 11:21:00,32.2,25.0,29.93,NW,325,1.0,9.0,76,0.04,,,0.06,weatherlink.com 1.10,2013-02-16 16:21:00,
2013-02-16 11:36:00,32.5,25.0,29.92,North,355,2.0,6.0,75,0.04,,,0.07,weatherlink.com 1.10,2013-02-16 16:36:00,
2013-02-16 11:51:00,32.7,25.0,29.92,NNE,25,5.0,11.0,74,0.03,,,0.08,weatherlink.com 1.10,2013-02-16 16:51:00,
2013-02-16 12:06:00,32.5,25.0,29.91,NE,36,4.0,9.0,74,0.04,,,0.09,weatherlink.com 1.10,2013-02-16 17:06:00,
2013-02-16 12:21:00,33.3,27.0,29.90,NW,306,3.0,7.0,76,0.02,,,0.09,weatherlink.com 1.10,2013-02-16 17:21:00,
2013-02-16 12:37:00,33.5,26.0,29.90,West,277,4.0,8.0,73,0.02,,,0.09,weatherlink.com 1.10,2013-02-16 17:37:00,
2013-02-16 12:52:00,33.5,26.0,29.90,North,360,0.0,7.0,73,0.02,,,0.10,weatherlink.com 1.10,2013-02-16 17:52:00,
2013-02-16 13:07:00,33.4,26.0,29.89,NW,305,4.0,7.0,74,0.01,,,0.10,weatherlink.com 1.10,2013-02-16 18:07:00,
2013-02-16 13:22:00,33.3,24.0,29.88,NNW,348,4.0,8.0,70,0.01,,,0.10,weatherlink.com 1.10,2013-02-16 18:22:00,
2013-02-16 13:37:00,33.3,24.0,29.88,NW,311,6.0,6.0,70,0.02,,,0.11,weatherlink.com 1.10,2013-02-16 18:37:00,
2013-02-16 13:52:00,33.4,24.0,29.87,NNW,334,3.0,7.0,68,0.01,,,0.11,weatherlink.com 1.10,2013-02-16 18:52:00,
2013-02-16 14:07:00,33.6,24.0,29.86,NNW,336,5.0,8.0,67,0.01,,,0.11,weatherlink.com 1.10,2013-02-16 19:07:00,
2013-02-16 14:22:00,33.5,24.0,29.86,NNE,12,2.0,11.0,67,0.01,,,0.11,weatherlink.com 1.10,2013-02-16 19:22:00,
2013-02-16 14:37:00,33.4,23.0,29.85,West,260,2.0,8.0,66,0.00,,,0.11,weatherlink.com 1.10,2013-02-16 19:37:00,
2013-02-16 14:52:00,33.2,23.0,29.86,NW,325,3.0,11.0,65,0.00,,,0.11,weatherlink.com 1.10,2013-02-16 19:52:00,
2013-02-16 15:07:00,33.0,22.0,29.86,NW,317,8.0,8.0,64,0.00,,,0.11,weatherlink.com 1.10,2013-02-16 20:07:00,
2013-02-16 15:22:00,33.0,22.0,29.87,NNW,344,5.0,7.0,63,0.00,,,0.11,weatherlink.com 1.10,2013-02-16 20:22:00,
2013-02-16 15:37:00,32.8,21.0,29.86,WNW,300,2.0,8.0,63,0.00,,,0.11,weatherlink.com 1.10,2013-02-16 20:37:00,
2013-02-16 15:52:00,32.6,22.0,29.86,NNW,345,3.0,6.0,65,0.00,,,0.11,weatherlink.com 1.10,2013-02-16 20:52:00,
2013-02-16 16:07:00,32.3,21.0,29.86,North,360,2.0,7.0,63,0.00,,,0.11,weatherlink.com 1.10,2013-02-16 21:07:00,
2013-02-16 16:22:00,32.0,21.0,29.86,North,350,2.0,6.0,63,0.00,,,0.11,weatherlink.com 1.10,2013-02-16 21:22:00,
2013-02-16 16:37:00,31.8,20.0,29.85,NNW,327,0.0,5.0,63,0.00,,,0.11,weatherlink.com 1.10,2013-02-16 21:37:00,
2013-02-16 16:52:00,31.6,21.0,29.85,North,355,0.0,5.0,64,0.00,,,0.11,weatherlink.com 1.10,2013-02-16 21:52:00,
2013-02-16 17:07:00,31.4,20.0,29.85,NNW,345,2.0,4.0,64,0.00,,,0.11,weatherlink.com 1.10,2013-02-16 22:07:00,
2013-02-16 17:22:00,31.2,20.0,29.85,NNW,347,0.0,4.0,64,0.00,,,0.11,weatherlink.com 1.10,2013-02-16 22:22:00,
2013-02-16 17:37:00,31.0,20.0,29.85,NW,326,0.0,6.0,65,0.00,,,0.11,weatherlink.com 1.10,2013-02-16 22:37:00,
2013-02-16 17:52:00,30.8,19.0,29.86,NNW,343,2.0,6.0,62,0.00,,,0.11,weatherlink.com 1.10,2013-02-16 22:52:00,
2013-02-16 18:07:00,30.7,18.0,29.86,NW,306,4.0,10.0,60,0.00,,,0.11,weatherlink.com 1.10,2013-02-16 23:07:00,
2013-02-16 18:22:00,30.6,18.0,29.85,North,11,2.0,8.0,61,0.00,,,0.11,weatherlink.com 1.10,2013-02-16 23:22:00,
2013-02-16 18:37:00,30.4,17.0,29.85,NE,47,3.0,10.0,57,0.00,,,0.11,weatherlink.com 1.10,2013-02-16 23:37:00,
2013-02-16 18:52:00,30.3,17.0,29.85,NNW,347,3.0,7.0,59,0.00,,,0.11,weatherlink.com 1.10,2013-02-16 23:52:00,
2013-02-16 19:07:00,30.1,18.0,29.84,WNW,286,5.0,8.0,60,0.00,,,0.11,weatherlink.com 1.10,2013-02-17 00:07:00,
2013-02-16 19:22:00,30.0,18.0,29.84,NNW,341,3.0,5.0,61,0.00,,,0.11,weatherlink.com 1.10,2013-02-17 00:22:00,
2013-02-16 19:37:00,29.9,18.0,29.83,WNW,295,0.0,8.0,62,0.00,,,0.11,weatherlink.com 1.10,2013-02-17 00:37:00,
2013-02-16 19:52:00,29.8,17.0,29.82,NW,315,3.0,10.0,60,0.00,,,0.11,weatherlink.com 1.10,2013-02-17 00:52:00,
2013-02-16 20:07:00,29.7,17.0,29.83,NE,47,4.0,8.0,60,0.00,,,0.11,weatherlink.com 1.10,2013-02-17 01:07:00,
2013-02-16 20:22:00,29.8,17.0,29.82,NE,40,8.0,10.0,60,0.00,,,0.11,weatherlink.com 1.10,2013-02-17 01:22:00,
2013-02-16 20:37:00,29.6,17.0,29.82,NNW,333,6.0,12.0,59,0.00,,,0.11,weatherlink.com 1.10,2013-02-17 01:37:00,
2013-02-16 20:52:00,29.4,17.0,29.83,North,5,9.0,13.0,59,0.00,,,0.11,weatherlink.com 1.10,2013-02-17 01:52:00,
2013-02-16 21:08:00,29.1,16.0,29.83,NNW,337,2.0,9.0,58,0.00,,,0.11,weatherlink.com 1.10,2013-02-17 02:08:00,
2013-02-16 21:23:00,28.8,16.0,29.83,NNE,22,5.0,9.0,59,0.00,,,0.11,weatherlink.com 1.10,2013-02-17 02:23:00,
2013-02-16 21:38:00,28.5,14.0,29.83,North,360,8.0,14.0,56,0.00,,,0.11,weatherlink.com 1.10,2013-02-17 02:38:00,
2013-02-16 21:53:00,28.3,14.0,29.82,NNE,26,2.0,12.0,56,0.00,,,0.11,weatherlink.com 1.10,2013-02-17 02:53:00,
2013-02-16 22:08:00,28.0,14.0,29.81,North,355,7.0,17.0,55,0.00,,,0.11,weatherlink.com 1.10,2013-02-17 03:08:00,
2013-02-16 22:23:00,27.8,15.0,29.80,NW,314,3.0,8.0,58,0.00,,,0.11,weatherlink.com 1.10,2013-02-17 03:23:00,
2013-02-16 22:38:00,27.5,13.0,29.79,NE,43,3.0,13.0,54,0.00,,,0.11,weatherlink.com 1.10,2013-02-17 03:38:00,
2013-02-16 22:53:00,27.2,12.0,29.79,NW,310,3.0,10.0,53,0.00,,,0.11,weatherlink.com 1.10,2013-02-17 03:53:00,
2013-02-16 23:08:00,27.0,11.0,29.79,NNW,339,3.0,14.0,50,0.00,,,0.11,weatherlink.com 1.10,2013-02-17 04:08:00,
2013-02-16 23:23:00,26.7,11.0,29.79,ENE,58,2.0,14.0,52,0.00,,,0.11,weatherlink.com 1.10,2013-02-17 04:23:00,
2013-02-16 23:38:00,26.6,11.0,29.78,North,355,5.0,11.0,52,0.00,,,0.11,weatherlink.com 1.10,2013-02-17 04:38:00,
2013-02-16 23:53:00,26.5,11.0,29.77,NE,42,2.0,9.0,53,0.00,,,0.11,weatherlink.com 1.10,2013-02-17 04:53:00,